Flag for U.S.A. Weather past 2 weeks in Fayetteville, North Carolina, U.S.A.

Now
47 °F

Clear.


Feels Like: 46 °F
Forecast: 42 / 74 °F
Wind: 3 mph from Southeast

Location: Fayetteville Regional Airport

Current Time: Apr 2, 2015 at 2:35:03 AM

Latest Report: Apr 2, 2015 at 1:53 AM


Visibility: 10 mi

Pressure: 30.26 "Hg

Humidity: 80%

Dew point: 41 °F

Location of FayettevilleLocation

Historic Weather in Fayetteville — Graph

°F

Fayetteville temperature yesterday

Maximum temperature yesterday: 68 °F (at 3:53 PM)
Minimum temperature yesterday: 51 °F (at 11:53 PM)
Average temperature yesterday: 60 °F

Past Weeks' High & Low Weather Summary

 TemperatureHumidityPressure
High77 °F (Mar 26, 3:53 PM)100% (Mar 26, 1:53 AM)30.45 "Hg (Mar 26, 1:53 AM)
Low29 °F (Mar 29, 3:53 AM)17% (Mar 29, 3:53 PM)29.62 "Hg (Mar 27, 5:53 AM)
Average54 °F64%30.06 "Hg
* Reported Mar 18 12:53 AM — Apr 2 12:53 AM, Fayetteville, Weather by CustomWeather, © 2015

Note: Actual official high and low records may vary slightly from our data, if they occured in-between our weather recording intervals... More about our weather records

Advertising

Fayetteville weather history for previous 24 hours

 ConditionsComfort  
Time TempWeatherWind HumidityBarometerVisibility
12:53 AM
Thu, Apr 2
48 °FClear.6 mph74%30.26 "Hg10 mi
11:53 PM
Wed, Apr 1
51 °FClear.8 mph66%30.25 "Hg10 mi
10:53 PM53 °FClear.10 mph52%30.23 "Hg10 mi
9:53 PM53 °FClear.7 mph52%30.20 "Hg10 mi
8:53 PM55 °FClear.7 mph51%30.17 "Hg10 mi
7:53 PM58 °FSunny.6 mph44%30.14 "Hg10 mi
6:53 PM65 °FSunny.6 mph32%30.12 "Hg10 mi
5:53 PM67 °FSunny.5 mph27%30.10 "Hg10 mi
4:53 PM68 °FSunny.No wind26%30.08 "Hg10 mi
3:53 PM68 °FSunny.7 mph28%30.08 "Hg10 mi
2:53 PM66 °FSunny.3 mph31%30.08 "Hg10 mi
1:53 PM67 °FSunny.13 mph33%30.09 "Hg10 mi
12:53 PM64 °FSunny.8 mph37%30.10 "Hg10 mi
11:53 AM62 °FSunny.12 mph41%30.10 "Hg10 mi
10:53 AM60 °FSunny.12 mph44%30.09 "Hg10 mi
9:53 AM58 °FSunny.15 mph51%30.05 "Hg10 mi
8:53 AM57 °FSunny.13 mph55%30.03 "Hg10 mi
7:53 AM53 °FClear.9 mph64%29.99 "Hg10 mi
6:53 AM53 °FClear.7 mph64%29.94 "Hg10 mi
5:53 AM56 °FClear.12 mph58%29.90 "Hg10 mi
4:53 AM59 °FClear.7 mph62%29.85 "Hg10 mi
3:53 AM59 °FClear.6 mph67%29.84 "Hg10 mi
2:53 AM55 °FClear.8 mph72%29.81 "Hg10 mi
Weather by CustomWeather, © 2015

See weather overviewHow to use our weather pages